Hourly Data Report for October 31, 2015

All times are specified in Local Standard Time (LST). Add 1 hour to adjust for Daylight Saving Time where and when it is observed.

KUGAARUK CLIMATE
NUNAVUT

68°32'15.060" N
89°47'47.020" W
15.80 m
2303094
71407
NBB

Download Data

Hourly Data (October 2015)
Hourly Data Report for October 31, 2015
Temp Definition
°C
Dew Point Temp Definition
°C
Rel Hum Definition
%
Wind Dir Definition
10's deg

Wind Spd Definition
km/h
Visibility Definition
km
Stn Press Definition
kPa
Hmdx Definition


Wind Chill Definition


Weather Definition


TIME
00:00 -20.7 -23.0 82 20 13   101.30   -29 LegendNANA
01:00 -21.4 -23.7 82 18 10   101.34   -29 LegendNANA
02:00 -22.2 -24.7 80 21 8   101.37   -29 LegendNANA
03:00 -22.1 -24.5 81 22 2   101.40   -24 LegendNANA
04:00 -21.7 -24.1 81 14 8   101.41   -28 LegendNANA
05:00 -24.0 -26.6 79 17 3   101.39   -27 LegendNANA
06:00 -23.3 -25.8 80 23 6   101.38   -29 LegendNANA
07:00 -23.6 -26.2 79 23 4   101.40   -27 LegendNANA
08:00 -23.8 -26.4 79 23 6   101.40   -29 LegendNANA
09:00 -23.0 -25.4 81 22 7   101.40   -29 LegendNANA
10:00 -23.3 -25.7 81 23 5   101.41   -28 LegendNANA
11:00 -23.4 -25.9 80   0   101.43     LegendNANA
12:00 -23.5 -26.0 80 8 6   101.44   -29 LegendNANA
13:00 -23.6 -26.2 80 2 3   101.47   -26 LegendNANA
14:00 -24.2 -26.8 79 5 4   101.49   -28 LegendNANA
15:00 -24.8 -27.6 78 6 4   101.47   -29 LegendNANA
16:00 -24.3 -27.0 79 5 3   101.44   -27 LegendNANA
17:00 -23.9 -26.5 79 7 4   101.44   -28 LegendNANA
18:00 -22.5 -25.0 80 11 2   101.44   -24 LegendNANA
19:00 -21.2 -23.5 82 9 5   101.42   -26 LegendNANA
20:00 -20.3 -22.5 82 6 6   101.39   -25 LegendNANA
21:00 -19.2 -21.3 83 7 6   101.37   -24 LegendNANA
22:00 -17.1 -19.1 85 1 6   101.35   -22 LegendNANA
23:00 -16.8 -18.7 85 3 6   101.36   -21 LegendNANA

Notes on Data Quality.

Legend

  • E = Estimated
  • M = Missing
  • NA = Not Available
  • ‡ = Partner data that is not subject to review by the National Climate Archives
Date modified: